Regional Weather Roundup
Issued by NWS Green Bay, WI

Home | Current Version | Previous Version | Graphics & Text | Print | Product List | Glossary Off
Versions: 1 2 3 4 5 6 7 8 9 10 11 12 13 14 15 16 17 18 19 20 21 22 23 24 25 26 27 28 29 30 31 32 33 34 35 36 37 38 39 40 41 42 43 44 45 46 47 48 49 50

000
ASUS43 KGRB 260100
RWRGRB

NORTH-CENTRAL AND NORTHEAST WISCONSIN REGIONAL WEATHER ROUNDUP
NATIONAL WEATHER SERVICE GREEN BAY WI
800 PM CDT WED MAY 25 2016

WIZ005-009-010>012-018-019-260200-
NORTH CENTRAL WISCONSIN

CITY           SKY/WX    TMP DP  RH WIND       PRES   REMARKS
IRONWOOD       CLOUDY    48  48 100 NW6       29.90F
MANITOWISH WTR NOT AVBL
ARBOR VITAE    NOT AVBL
EAGLE RIVER    NOT AVBL
LAND O LAKES   NOT AVBL
RHINELANDER    RAIN      62  60  93 SE9       29.89F FOG
PHILLIPS       NOT AVBL
ANTIGO         NOT AVBL
TOMAHAWK       NOT AVBL
MERRILL        NOT AVBL
$$

WIZ013-073-260200-
NORTHEAST WISCONSIN

CITY           SKY/WX    TMP DP  RH WIND       PRES   REMARKS
IRON MOUNTAIN  LGT RAIN  62  59  90 SE5       29.93F FOG
MARINETTE      LGT RAIN  58  56  93 NE9       29.93F
$$

WIZ017-030-035>037-045-260200-
CENTRAL WISCONSIN

CITY           SKY/WX    TMP DP  RH WIND       PRES   REMARKS
MEDFORD        NOT AVBL
WAUSAU         LGT RAIN  64  32  30 SE7       29.85F
MOSINEE        LGT RAIN  63  63 100 E8        29.87R
MARSHFIELD     LGT RAIN  66  62  87 W9G17     29.86R
WISC RAPIDS    CLOUDY    65  61  87 SE9       29.88S
STEVENS POINT  NOT AVBL
WAUPACA        NOT AVBL
SHAWANO        NOT AVBL
CLINTONVILLE   NOT AVBL
WAUTOMA        CLOUDY    64  63  96 E8        29.87S
$$

WIZ038-039-048-051-260200-
FOX VALLEY

CITY           SKY/WX    TMP DP  RH WIND       PRES   REMARKS
NWS GREEN BAY  CLOUDY    61  58  90 NE8       29.92R
APPLETON       TSTM      59  59 100 NE10      29.89F
OSHKOSH        CLOUDY    61  57  87 NE8       29.89F
FOND DU LAC    LGT RAIN  66  61  84 E3        29.89R
$$

WIZ022-050-052-260200-
EAST CENTRAL WISCONSIN

CITY           SKY/WX    TMP DP  RH WIND       PRES   REMARKS
EPHRAIM        NOT AVBL
STURGEON BAY   NOT AVBL
MANITOWOC      NOT AVBL
SHEBOYGAN      LGT RAIN  52  50  93 NE8       29.91F
$$

LMZ563-521-522-541>543-260200-
LAKESHORE

STATION/POSITION TIME  TEMP    WIND        PRES    VSBY  WAVE
                       AIR SEA DIR/SP/G                  HT/PER
                 (UTC) (F)     (DEG/KT/KT) (MB)    (MI)  (FT/S)
SHEBOYGAN LKSHOR 0000   49     350/  4/  5 1014.2S
KEWAUNEE LKSHORE 0000           20/ 11/ 14 1013.3F
ALGOMA MARINA    0017           40/  8/ 11   N/A
NORTHPORT PIER   0000   54     130/  4/  6 1014.6F
N MID LAKE BUOY  2350   49 45   70/  6/  6 1014.4S         1
SISTER BAY LKSHO 0019   59     130/  7/  9   N/A
CHAMBERS ISLAND  0040   58      20/  3/  4 1013.9F
MENOMINEE LKSHOR 0000           20/  5/  7 1013.1F
$$




USA.gov is the U.S. government's official web portal to all federal, state and local government web resources and services.